Flag for Poland Weather past 2 weeks in Włocławek, Poland

Now
68 °F

Sunny.


Feels Like: 68 °F
Forecast: 51 / 69 °F
Wind: 7 mph from East

Location: Plock


UV Index: 0 (Low)

Visibility: 13 mi


Pressure: 30.06 "Hg

Humidity: 51%

Dew point: 49 °F

Location of WłocławekLocation

Historic Weather in Włocławek

°F

Włocławek temperature yesterday

Maximum temperature yesterday: 61 °F (at 5:00 PM)
Minimum temperature yesterday: 35 °F (at 6:00 AM)
Average temperature yesterday: 50 °F

Past Weeks' High & Low Weather Summary

 TemperatureHumidityPressure
High71 °F (Apr 8, 1:00 PM)98% (Apr 11, 6:00 AM)30.41 "Hg (Apr 11, 6:00 AM)
Low28 °F (Apr 17, 6:00 AM)28% (Apr 5, 3:00 PM)29.60 "Hg (Apr 14, 4:00 PM)
Average47 °F72%30.01 "Hg
* Reported Apr 4 11:00 AM — Apr 19 11:00 AM, Włocławek, Weather by CustomWeather, © 2014

Note: Actual official high and low records may vary slightly from our data, if they occured in-between our weather recording intervals... More about our weather records

Advertising

Historic Weather Conditions — Data for Previous 24 hours

 ConditionsComfort  
Time TempWeatherWind HumidityBarometerVisibility
11:00 AM
Apr 19
66 °FSunny.6 mph60%30.07 "Hg12 mi
10:00 AM63 °FSunny.5 mph67%30.07 "Hg12 mi
9:00 AM59 °FSunny.5 mph75%30.07 "Hg9 mi
8:00 AM55 °FSunny.3 mph82%30.06 "Hg7 mi
7:00 AM52 °FFog.3 mph88%30.04 "Hg6 mi
6:00 AM50 °FFog.3 mph92%30.03 "Hg4 mi
5:00 AM51 °FFog.5 mph93%30.01 "Hg4 mi
4:00 AM51 °FFog.5 mph93%30.00 "Hg4 mi
3:00 AM50 °FFog.3 mph91%30.00 "Hg5 mi
2:00 AM52 °FFog.5 mph89%29.98 "Hg6 mi
1:00 AM54 °FPassing clouds.5 mph83%29.97 "Hg9 mi
12:00 AM54 °FOvercast.5 mph80%29.96 "Hg12 mi
11:00 PM
Apr 18
54 °FSprinkles. Overcast.5 mph81%29.93 "Hg6 mi
10:00 PM53 °FFog.5 mph77%29.92 "Hg6 mi
9:00 PM54 °FFog.3 mph76%29.92 "Hg5 mi
8:00 PM56 °FOvercast.5 mph74%29.90 "Hg6 mi
7:00 PM59 °FPartly sunny.3 mph61%29.87 "Hg9 mi
6:00 PM60 °FPartly sunny.2 mph54%29.85 "Hg11 mi
5:00 PM61 °FScattered clouds.2 mph48%29.84 "Hg12 mi
4:00 PM60 °FScattered clouds.3 mph52%29.83 "Hg12 mi
3:00 PM58 °FScattered clouds.3 mph51%29.83 "Hg12 mi
2:00 PM58 °FPartly sunny.5 mph55%29.83 "Hg12 mi
1:00 PM57 °FPartly sunny.5 mph58%29.82 "Hg9 mi
12:00 PM55 °FPartly sunny.5 mph59%29.82 "Hg14 mi
Weather by CustomWeather, © 2014

See weather overview